User: anonymous   Login
Location: Losili
(4.4086°N, 32.7049°E)
Time: 11:13:24
(UTC+00:00)
Language:

CSL-04 Rocket - Orbit

View from above orbital plane
View from above orbital plane
View from above satellite
View from above satellite

Ground track
Ground track

The orbit data is extracted from the following two-line orbital elements,

1 25732U 99025C   19318.51741396 -.00000040  00000-0  24735-5 0  9993
2 25732  98.9669 340.5147 0038333 105.4943  15.3432 14.17669783 61364
Epoch (UTC): 14 November 2019 12:25:04
Eccentricity: 0.0038333
inclination: 98.9669°
perigee height: 805 km
apogee height: 861 km
right ascension of ascending node: 340.5147°
argument of perigee: 105.4943°
revolutions per day: 14.17669783
mean anomaly at epoch: 15.3432°
orbit number at epoch: 6136

The dashed part of the orbit path shows where the satellite is in the earth's shadow,  

DLR